This demonstration page uses our WeatherBlox Daily Observations layout. Learn more.

Left ArrowRight Arrow

39.51506, -84.39828

Hourly Observations for March 13, 2018

Temp ( °F °C ) Dew Point ( °F °C ) Humidity (%) Winds ( mph kmh ) Pressure ( in mb ) Visibility ( mi km ) Precip ( " mm )
12:15 am 00:15 Clear 30 -1.3 23 -4.8 77 77 NW 5 7 30.12 1020 10 16.0934 N/A
12:35 am 00:35 Clear 29 -1.4 23 -5.2 76 76 NW 6 9 30.12 1020 10 16.0934 N/A
12:55 am 00:55 Clear 29 -1.6 22 -5.4 76 76 WNW 6 9 30.12 1020 10 16.0934 N/A
1:15 am 01:15 Clear 28 -2 22 -5.8 76 76 WNW 5 7 30.12 1020 10 16.0934 N/A
1:35 am 01:35 Clear 28 -2.3 22 -5.7 78 78 NW 6 9 30.12 1020 10 16.0934 N/A
1:55 am 01:55 Clear 28 -2.3 21 -5.9 77 77 WNW 5 7 30.12 1020 10 16.0934 N/A
2:15 am 02:15 Clear 28 -2.1 22 -5.8 76 76 NW 5 7 30.12 1020 10 16.0934 N/A
2:35 am 02:35 Clear 28 -2.5 21 -5.9 78 78 WNW 7 11 30.12 1020 10 16.0934 N/A
2:55 am 02:55 Clear 27 -2.6 22 -5.7 80 80 WNW 5 7 30.12 1020 10 16.0934 N/A
3:15 am 03:15 Clear 26 -3.1 21 -6.1 80 80 WNW 7 11 30.12 1020 10 16.0934 N/A
3:35 am 03:35 Clear 27 -2.7 22 -5.7 80 80 NW 7 11 30.12 1020 10 16.0934 N/A
3:55 am 03:55 Clear 28 -2.4 22 -5.7 78 78 NNW 6 9 30.12 1020 10 16.0934 N/A
4:15 am 04:15 Clear 28 -2 22 -5.7 76 76 NNW 5 7 30.09 1019 10 16.0934 N/A
4:35 am 04:35 Clear 27 -2.8 21 -6.1 78 78 NW 5 7 30.09 1019 10 16.0934 N/A
4:55 am 04:55 Clear 27 -2.9 21 -6.1 79 79 NW 5 7 30.09 1019 10 16.0934 N/A
5:15 am 05:15 Clear 26 -3.2 21 -6.1 81 81 NW 5 7 30.09 1019 10 16.0934 N/A
5:35 am 05:35 Clear 26 -3.5 21 -6.2 82 82 WNW 3 6 30.09 1019 10 16.0934 N/A
5:55 am 05:55 Clear 27 -3 21 -6 80 80 NW 5 7 30.12 1020 10 16.0934 N/A
6:15 am 06:15 Clear 26 -3.6 21 -6.1 83 83 N N/A 30.12 1020 10 16.0934 N/A
6:35 am 06:35 Clear 26 -3.5 21 -6 83 83 N N/A 30.12 1020 10 16.0934 N/A
6:55 am 06:55 Clear 26 -3.5 21 -5.9 84 84 NW 7 11 30.12 1020 10 16.0934 N/A
7:15 am 07:15 Clear 25 -4.1 21 -6.3 85 85 WNW 3 6 30.12 1020 10 16.0934 N/A
7:35 am 07:35 Cloudy 25 -3.9 21 -6.1 85 85 N N/A 30.12 1020 10 16.0934 N/A
7:55 am 07:55 Cloudy 28 -2.3 24 -4.7 84 84 NW 6 9 30.12 1020 10 16.0934 N/A
8:15 am 08:15 Cloudy 29 -1.8 24 -4.3 83 83 NW 6 9 30.12 1020 10 16.0934 N/A
8:35 am 08:35 Cloudy 30 -1.3 24 -4.2 81 81 NW 6 9 30.12 1020 10 16.0934 N/A
8:55 am 08:55 Cloudy 30 -1.1 25 -4 81 81 WNW 6 9 30.12 1020 10 16.0934 N/A
9:15 am 09:15 Cloudy 31 -0.8 25 -3.8 80 80 W 5 7 30.12 1020 10 16.0934 N/A
9:35 am 09:35 Cloudy 31 -0.5 25 -4.1 77 77 WNW 6 9 30.12 1020 10 16.0934 N/A
9:55 am 09:55 Cloudy 32 0.2 25 -3.7 75 75 NW 6 9 30.12 1020 10 16.0934 N/A
10:15 am 10:15 Partly Cloudy 33 0.8 24 -4.2 70 70 W 6 9 30.12 1020 10 16.0934 N/A
10:35 am 10:35 Partly Cloudy 35 1.7 23 -5 61 61 NW 6 9 30.12 1020 10 16.0934 N/A
10:55 am 10:55 Partly Cloudy 36 2.1 22 -5.8 56 56 W 7 11 30.12 1020 10 16.0934 N/A
11:15 am 11:15 Partly Cloudy 38 3.3 22 -5.7 52 52 NW 9 15 30.12 1020 10 16.0934 N/A
11:35 am 11:35 Cloudy 38 3.4 21 -5.9 51 51 NW 6 9 30.09 1019 10 16.0934 N/A
11:55 am 11:55 Cloudy 39 3.7 22 -5.6 51 51 WNW 10 17 30.09 1019 10 16.0934 N/A
12:15 pm 12:15 Cloudy 38 3.3 20 -6.5 49 49 WNW 9 15 30.09 1019 10 16.0934 N/A
12:35 pm 12:35 Cloudy 39 4.1 21 -5.9 49 49 NW 14 22 30.06 1018 10 16.0934 N/A
12:55 pm 12:55 Cloudy with Snow 30 -0.9 29 -1.8 94 94 N 10 17 30.12 1020 5 8.0467 N/A
1:15 pm 13:15 Cloudy with Light Snow 30 -0.9 27 -2.6 88 88 N 8 13 30.12 1020 5 8.0467 N/A
1:35 pm 13:35 Cloudy 31 -0.3 27 -2.7 84 84 NNW 8 13 30.12 1020 10 16.0934 N/A
1:55 pm 13:55 Cloudy with Light Rain 34 1 28 -2.3 79 79 NNW 10 17 30.09 1019 10 16.0934 N/A
2:15 pm 14:15 Cloudy 35 1.8 28 -2.3 75 75 NNW 5 7 30.09 1019 10 16.0934 N/A
2:35 pm 14:35 Cloudy 36 2.1 27 -2.8 70 70 NNW 7 11 30.09 1019 10 16.0934 N/A
2:55 pm 14:55 Cloudy 36 2.1 26 -3.5 67 67 N 9 15 30.06 1018 10 16.0934 N/A
3:15 pm 15:15 Cloudy 35 1.7 24 -4.5 64 64 NW 17 28 30.06 1018 10 16.0934 N/A
3:35 pm 15:35 Mostly Cloudy 36 2.3 26 -3.2 67 67 N 15 24 30.06 1018 10 16.0934 N/A
3:55 pm 15:55 Cloudy 38 3.5 26 -3.6 60 60 NNW 16 26 30.06 1018 10 16.0934 N/A
4:15 pm 16:15 Cloudy 39 4 22 -5.7 50 50 NNW 13 20 30.03 1017 10 16.0934 N/A
4:35 pm 16:35 Partly Cloudy 39 4 20 -6.5 47 47 NW 16 26 30.03 1017 10 16.0934 N/A
4:55 pm 16:55 Cloudy 36 2.2 23 -4.9 60 60 NW 16 26 30.06 1018 10 16.0934 N/A
5:15 pm 17:15 Cloudy with Light Snow 33 0.6 28 -2.2 82 82 WNW 9 15 30.06 1018 5 8.0467 N/A
5:35 pm 17:35 Sunny 36 2.3 25 -3.9 64 64 NW 15 24 30.06 1018 10 16.0934 N/A
5:55 pm 17:55 Partly Cloudy 36 2.2 23 -5.2 58 58 WNW 12 19 30.06 1018 10 16.0934 N/A
6:15 pm 18:15 Cloudy with Light Snow 32 0.1 22 -5.5 66 66 NNW 7 11 30.06 1018 5 8.0467 N/A
6:35 pm 18:35 Windy with Snow Likely 33 0.7 23 -5.1 66 66 NNW 20 31 30.09 1019 7 11.26538 N/A
6:55 pm 18:55 Cloudy 32 undefined 24 -4.4 73 73 NW 9 15 30.09 1019 10 16.0934 N/A
7:15 pm 19:15 Mostly Cloudy 32 0.1 22 -5.3 67 67 NW 9 15 30.09 1019 10 16.0934 N/A
7:35 pm 19:35 Mostly Cloudy 32 -0.2 21 -5.9 66 66 NW 9 15 30.09 1019 10 16.0934 N/A
7:55 pm 19:55 Cloudy with Light Snow 31 -0.8 23 -4.9 74 74 N 13 20 30.09 1019 10 16.0934 N/A
8:15 pm 20:15 Cloudy with Light Snow 29 -1.5 25 -3.7 85 85 N 7 11 30.12 1020 5 8.0467 N/A
8:35 pm 20:35 Cloudy 29 -1.5 24 -4.7 79 79 NNW 15 24 30.12 1020 10 16.0934 N/A
8:55 pm 20:55 Partly Cloudy 28 -2.2 23 -5 81 81 NNE 8 13 30.12 1020 10 16.0934 N/A
9:15 pm 21:15 Mostly Cloudy 28 -2.3 22 -5.8 77 77 N 5 7 30.12 1020 10 16.0934 N/A
9:35 pm 21:35 Clear 27 -2.7 21 -6.3 77 77 NW 6 9 30.12 1020 10 16.0934 N/A
9:55 pm 21:55 Clear 27 -2.9 20 -6.4 77 77 WNW 7 11 30.12 1020 10 16.0934 N/A
10:15 pm 22:15 Partly Cloudy 27 -3 20 -6.4 78 78 WNW 7 11 30.12 1020 10 16.0934 N/A
10:35 pm 22:35 Clear 27 -3 20 -6.4 78 78 NW 7 11 30.12 1020 10 16.0934 N/A
10:55 pm 22:55 Clear 27 -2.8 20 -6.8 74 74 NW 8 13 30.12 1020 10 16.0934 N/A
11:15 pm 23:15 Mostly Cloudy 27 -2.7 18 -7.6 69 69 NW 10 17 30.12 1020 10 16.0934 N/A
11:35 pm 23:35 Clear 27 -3 17 -8.2 68 68 NW 9 15 30.12 1020 10 16.0934 N/A
11:55 pm 23:55 Clear 27 -2.9 16 -8.8 64 64 NW 8 13 30.12 1020 10 16.0934 N/A

Powered by AerisWeather